Fort Campbell, KY

3:33 PM CST on November 22, 2019 (GMT -0600)
Campbell Army Air Field

Weather History for KHOP - October, 2019

Change the Weather History Date:

Monday, October 21, 2019

  Actual Average Record
Temperature  
Mean Temperature 65 °F -  
Max Temperature 71 °F 68 °F 80 °F (2007)
Min Temperature 59 °F 45 °F 32 °F (2018)
Growing Degree Days 15 (Base 50)    
Moisture  
Dew Point 62 °F    
Average Humidity 86    
Maximum Humidity 100    
Minimum Humidity 78    
Precipitation  
Precipitation 0.06 in - - ()
Sea Level Pressure  
Sea Level Pressure 29.78 in    
Wind  
Wind Speed 13 mph (South)    
Max Wind Speed 18 mph    
Max Gust Speed 30 mph    
Visibility 10 miles    
Events Rain    
Averages and records for this station are not official NWS values.
T = Trace of Precipitation, MM = Missing Value Source: NWS Daily Summary

Daily Weather History Graph

Daily Weather History Graph

Search for Another Location

Airport or City:

Astronomy

Oct. 21, 2019 Rise Set
Actual Time 7:02 AM CDT 6:05 PM CDT
Civil Twilight 6:36 AM CDT 6:32 PM CDT
Nautical Twilight 6:06 AM CDT 7:02 PM CDT
Astronomical Twilight 5:36 AM CDT 7:32 PM CDT
Moon No Moon Rise 2:14 PM CDT (10/21)
Length of Visible Light 11h 55m
Length of Day
11h 03m
Waning Gibbous, 48% of the Moon is Illuminated
Oct 21
Waning Gibbous
Oct 27
New
Nov 4
First Quarter
Nov 12
Full
Nov 19
Last Quarter

Hourly Weather History & Observations

Time (CDT) Temp. Dew Point Humidity Pressure Visibility Wind Dir Wind Speed Gust Speed Precip Events Conditions
12:56 AM 62.2 °F 55.9 °F 80% 29.83 in 10.0 mi SE 9.2 mph - N/A   Partly Cloudy
1:56 AM 62.2 °F 57.7 °F 85% 29.81 in 10.0 mi SE 10.4 mph - N/A   Clear
2:56 AM 63.0 °F 57.4 °F 82% 29.79 in 10.0 mi SE 10.4 mph - N/A   Mostly Cloudy
3:56 AM 63.7 °F 57.0 °F 79% 29.77 in 10.0 mi SSE 12.7 mph - N/A   Scattered Clouds
4:56 AM 63.7 °F 57.7 °F 81% 29.74 in 10.0 mi SE 12.7 mph - N/A   Scattered Clouds
5:56 AM 64.9 °F 59.0 °F 81% 29.74 in 10.0 mi SE 11.5 mph - N/A   Mostly Cloudy
6:56 AM 65.7 °F 60.3 °F 83% 29.73 in 10.0 mi SSE 9.2 mph 18.4 mph N/A   Scattered Clouds
8:53 AM 69.8 °F 62.6 °F 78% 29.76 in 9.0 mi South 17.3 mph 25.3 mph N/A Rain Light Rain
8:54 AM 69.8 °F 62.6 °F 78% 29.76 in 8.0 mi South 17.3 mph 25.3 mph N/A Rain Light Rain
8:56 AM 69.1 °F 63.0 °F 81% 29.76 in 8.0 mi South 18.4 mph 25.3 mph 0.02 in Rain Light Rain
9:03 AM 68.0 °F 64.4 °F 88% 29.76 in 8.0 mi South 16.1 mph 25.3 mph N/A   Mostly Cloudy
9:14 AM 66.2 °F 64.4 °F 94% 29.76 in 10.0 mi South 15.0 mph 28.8 mph N/A Rain Light Rain
9:18 AM 66.2 °F 64.4 °F 94% 29.77 in 10.0 mi South 15.0 mph 28.8 mph N/A   Mostly Cloudy
9:56 AM 67.5 °F 64.4 °F 90% 29.77 in 10.0 mi South 15.0 mph 29.9 mph 0.03 in   Overcast
10:06 AM 69.8 °F 64.4 °F 83% 29.77 in 10.0 mi South 17.3 mph 27.6 mph N/A   Mostly Cloudy
10:16 AM 71.6 °F 64.4 °F 78% 29.76 in 10.0 mi South 18.4 mph 26.5 mph N/A   Scattered Clouds
10:56 AM 69.4 °F 63.7 °F 82% 29.76 in 10.0 mi South 12.7 mph 21.9 mph 0.01 in   Scattered Clouds
11:48 AM 69.8 °F 62.6 °F 78% 29.79 in 10.0 mi SSW 15.0 mph 24.2 mph N/A   Light Drizzle
11:52 AM 69.8 °F 64.4 °F 83% 29.79 in 10.0 mi SSW 15.0 mph 24.2 mph N/A   Light Drizzle
11:56 AM 69.4 °F 63.3 °F 81% 29.78 in 10.0 mi South 16.1 mph 24.2 mph 0.00 in   Light Drizzle
12:09 PM 68.0 °F 64.4 °F 88% 29.79 in 10.0 mi South 13.8 mph - N/A   Scattered Clouds
12:14 PM 68.0 °F 62.6 °F 83% 29.78 in 10.0 mi South 13.8 mph - N/A   Light Drizzle
12:26 PM 68.0 °F 62.6 °F 83% 29.79 in 10.0 mi South 11.5 mph 23.0 mph N/A   Partly Cloudy
12:27 PM 68.0 °F 64.4 °F 88% 29.79 in 10.0 mi South 12.7 mph 23.0 mph N/A   Light Drizzle
12:38 PM 68.0 °F 64.4 °F 88% 29.78 in 10.0 mi South 16.1 mph 20.7 mph N/A   Clear
12:43 PM 68.0 °F 64.4 °F 88% 29.77 in 10.0 mi South 16.1 mph 21.9 mph N/A   Light Drizzle
12:44 PM 68.0 °F 64.4 °F 88% 29.77 in 10.0 mi South 15.0 mph 21.9 mph N/A   Clear
12:56 PM 68.4 °F 63.3 °F 84% 29.78 in 10.0 mi South 16.1 mph 23.0 mph 0.00 in   Clear
12:57 PM 68.0 °F 62.6 °F 83% 29.78 in 10.0 mi South 13.8 mph 23.0 mph N/A   Light Drizzle
1:08 PM 68.0 °F 62.6 °F 83% 29.77 in 10.0 mi South 16.1 mph 25.3 mph N/A   Partly Cloudy
1:26 PM 68.0 °F 64.4 °F 88% 29.78 in 10.0 mi South 13.8 mph 23.0 mph N/A   Light Drizzle
1:30 PM 68.0 °F 64.4 °F 88% 29.78 in 10.0 mi South 13.8 mph 23.0 mph N/A   Clear
1:56 PM 66.7 °F 63.7 °F 90% 29.76 in 10.0 mi South 16.1 mph 21.9 mph 0.00 in   Clear
2:56 PM 66.4 °F 60.6 °F 82% 29.71 in 10.0 mi South 10.4 mph 23.0 mph N/A   Clear
3:56 PM 65.5 °F 59.5 °F 81% 29.74 in 10.0 mi South 12.7 mph - N/A   Clear
4:46 PM 66.2 °F 59.0 °F 78% 29.75 in 10.0 mi SSW 16.1 mph 21.9 mph N/A   Overcast
4:56 PM 65.1 °F 60.1 °F 84% 29.76 in 10.0 mi South 16.1 mph 21.9 mph N/A   Overcast
5:06 PM 64.4 °F 60.8 °F 88% 29.76 in 10.0 mi SSW 12.7 mph 18.4 mph N/A   Overcast
5:07 PM 64.4 °F 60.8 °F 88% 29.76 in 10.0 mi SSW 12.7 mph 18.4 mph N/A   Light Drizzle
5:22 PM 64.4 °F 60.8 °F 88% 29.76 in 10.0 mi South 11.5 mph 21.9 mph N/A   Overcast
5:32 PM 64.4 °F 60.8 °F 88% 29.76 in 10.0 mi South 11.5 mph 20.7 mph N/A   Overcast
5:56 PM 64.0 °F 60.4 °F 88% 29.76 in 10.0 mi South 10.4 mph - 0.00 in   Mostly Cloudy
6:56 PM 63.5 °F 60.3 °F 89% 29.78 in 10.0 mi SW 10.4 mph 16.1 mph N/A   Mostly Cloudy
7:06 PM 62.6 °F 60.8 °F 94% 29.79 in 10.0 mi SSW 13.8 mph - N/A   Mostly Cloudy
7:16 PM 62.6 °F 60.8 °F 94% 29.79 in 10.0 mi SSW 10.4 mph - N/A   Scattered Clouds
7:56 PM 62.6 °F 60.4 °F 93% 29.80 in 10.0 mi SSW 8.1 mph - N/A   Scattered Clouds
8:56 PM 62.1 °F 60.3 °F 94% 29.82 in 10.0 mi SSW 12.7 mph - N/A   Partly Cloudy
9:56 PM 61.0 °F 59.9 °F 96% 29.84 in 10.0 mi SSW 11.5 mph - N/A   Clear
10:56 PM 59.7 °F 59.4 °F 99% 29.85 in 10.0 mi SW 12.7 mph - N/A   Partly Cloudy
11:56 PM 59.7 °F 59.7 °F 100% 29.85 in 10.0 mi WSW 16.1 mph - N/A   Partly Cloudy